Погода в Куйтеже

Россия / Республика Карелия     60°59′38″N   33°12′51″E
темп.,
°C
ветер,
м/с
пор.,
м/с
влажн.,
%
обл.,
%
осадки,
мм/ч
давл.,
гПа
погр.,
м
15 мая, сб
сб1500:00+12вюв237566 0.0 101247
03:00+11вюв258364 0.0 101186
06:00+12в26816 0.0 1011139
09:00+18в35599 0.0 1010491
12:00+21в465059 0.0 10091465
15:00+23в4645100 0.0 10062288
18:00+18всв396720 0.3 1004350
21:00+14всв398090 0.6 1004318
16 мая, вс
вс1600:00+12ссв1195100 0.1 100322
03:00+12ссв229798 0.2 100231
06:00+13ссз2496100 1.5 1002202
09:00+13с2794100 1.9 1004331
12:00+13ссз2494100 1.7 1006228
15:00+14з2389100 2.2 1008355
18:00+14зюз2391100 0.4 1009206
21:00+11зюз239763 0.4 101182
17 мая, пн
пн1700:00+10ююз129582 0.0 101231
03:00+10ююз239720 0.0 101379
06:00+11ю13921 0.0 101494
09:00+16ю23630 0.0 1014420
12:00+21юв23445 0.0 10141134
15:00+22юв3543100 0.0 10132073
18:00+21юв3657100 0.0 1012319
21:00+17в397794 0.0 1011197
18 мая, вт
вт1800:00+16вюв4128184 0.0 1011386
03:00+14ююв41391100 0.9 1010580
06:00+15вюв41092100 0.0 1009312
09:00+19вюв5118388 0.0 1007544
12:00+24юв51054100 0.0 10061239
15:00+26юв51247100 0.0 10041744
18:00+25юв51150100 0.0 10031609
21:00+22юв61459100 0.0 1002769
19 мая, ср
ср1900:00+20юв51462100 0.0 1003794
03:00+17вюв4127873 0.0 1002355
06:00+17юв5137642 0.0 1000668
09:00+21ююв612635 0.0 10001428
12:00+21ю5962100 0.3 10001709
15:00+21ююв4106198 0.4 999584
18:00+20ююв5107291 0.7 9991248
21:00+16ююв4108798 2.6 999523